ECMWFFLT2_925_rhum_087.txt.gz
RH
70 67 67 67 68 69 70 70 70 71 70 64 51 41 36 32 34 36 43 49 47 42 37 44 57 71 79 80 81 78 72 70 75 82 84 85 85 80 65 58 63 55 44 40 30 27 26 22 23 23 24 21
72 70 70 71 74 74 76 76 76 73 59 44 31 27 26 27 36 40 45 48 43 39 35 34 35 47 65 72 76 75 69 63 64 71 77 80 79 76 63 55 60 49 43 50 38 30 29 24 27 28 27 25
74 74 75 76 75 73 72 70 70 60 40 27 25 30 31 36 51 53 53 52 48 45 42 40 33 36 50 58 66 69 65 57 58 61 68 75 71 71 64 52 53 44 39 51 45 32 32 29 30 33 32 30
66 62 57 52 48 46 43 40 39 34 31 33 35 45 46 46 56 59 59 55 50 48 46 44 39 38 43 49 56 59 55 50 54 59 63 67 65 65 58 44 42 40 40 54 55 39 33 34 32 30 30 30
37 37 37 36 30 27 26 27 28 27 39 47 47 61 59 50 53 57 60 55 50 50 47 45 43 42 43 47 55 55 49 44 49 57 62 63 62 59 53 43 36 34 37 46 53 46 36 35 33 28 25 24
30 32 42 44 36 32 32 37 39 37 48 54 55 67 63 53 55 54 52 51 50 50 47 46 45 45 44 47 54 53 47 44 45 54 63 64 63 60 53 45 38 34 34 33 37 43 38 34 34 31 24 20
42 44 48 44 37 37 41 44 48 47 51 55 58 63 58 53 53 50 46 46 50 50 47 47 45 44 44 45 49 46 43 43 43 49 57 58 58 56 48 41 40 38 36 33 32 35 33 32 32 30 25 20
45 45 45 42 37 40 44 46 51 54 53 53 53 53 52 51 51 49 46 46 50 49 47 46 45 43 43 42 43 42 42 43 42 43 44 44 46 46 42 39 40 39 37 36 35 34 32 31 30 28 26 22
38 35 37 40 40 42 45 47 52 56 54 50 48 47 48 47 48 47 46 48 48 46 45 44 43 44 42 40 39 41 41 41 41 41 39 38 40 41 41 40 39 39 39 38 38 37 35 34 33 30 29 25
37 37 40 42 43 45 46 47 51 53 50 48 47 47 47 44 44 44 43 45 44 43 43 43 43 43 43 41 40 41 40 39 39 39 39 39 39 39 40 40 39 40 40 39 39 40 38 37 36 35 33 30
41 41 43 44 44 44 45 47 50 50 49 48 46 45 45 44 44 44 45 45 44 44 43 43 44 45 45 44 43 42 40 40 39 38 39 40 39 38 38 39 39 40 40 39 40 40 40 39 38 38 36 35
44 43 43 43 42 42 43 44 46 48 47 43 37 36 38 38 38 40 41 41 41 39 38 38 39 41 44 45 44 42 42 42 41 40 40 40 39 39 39 40 41 40 39 39 40 40 40 39 39 39 38 38
42 41 40 39 39 39 39 40 42 42 41 38 35 36 37 36 35 36 36 36 36 34 34 33 33 38 43 45 43 42 44 45 45 43 42 41 42 41 39 40 42 41 41 41 40 40 40 39 40 40 40 39
39 39 38 38 37 38 38 40 41 42 45 45 45 45 43 38 36 39 39 37 35 32 32 32 34 42 46 47 46 46 47 48 48 48 47 46 45 43 42 43 45 45 46 46 43 42 42 41 40 40 40 40
40 40 40 41 40 40 41 42 43 46 49 49 48 47 44 38 36 42 44 42 38 33 31 30 38 48 51 51 52 53 52 51 52 51 51 51 48 47 47 48 48 48 49 48 46 45 45 44 43 42 41 40
39 39 40 41 42 42 43 43 44 46 47 47 47 46 44 36 36 45 50 50 45 36 32 34 45 53 54 56 55 56 56 55 55 54 53 51 47 47 49 48 47 48 47 48 49 47 47 46 45 44 42 41
37 37 37 37 40 41 42 42 43 45 45 46 46 45 43 37 36 44 51 56 49 38 33 38 52 58 57 58 58 58 58 58 57 55 52 48 46 48 50 51 52 52 51 50 50 48 48 47 46 46 44 44
40 38 36 36 37 38 40 41 41 44 45 45 44 44 43 39 38 42 49 56 48 35 31 36 49 57 58 57 58 59 60 59 55 51 51 52 53 55 56 57 56 55 54 52 51 50 50 49 48 47 45 44
47 44 41 40 39 37 38 39 39 42 44 45 44 43 43 40 41 42 44 50 42 28 29 36 45 53 56 55 56 58 59 56 50 50 55 58 59 60 59 59 58 58 58 56 55 53 51 51 50 49 48 47
50 47 45 44 41 40 38 38 40 40 41 43 44 44 43 43 48 47 43 44 34 20 25 33 40 49 51 50 52 53 54 51 48 52 56 57 59 59 58 59 58 57 55 53 53 53 52 53 52 52 51 49
50 48 47 45 42 40 38 38 40 41 41 42 44 45 42 43 49 49 47 42 27 18 23 28 33 42 45 46 48 47 47 47 47 51 52 53 55 53 52 52 52 51 51 54 55 55 54 54 54 53 52 50
52 50 49 47 45 43 40 38 38 39 40 40 41 41 37 35 37 42 43 34 23 20 24 26 32 41 46 47 46 45 46 44 44 46 46 47 47 45 47 47 49 51 52 54 54 53 53 54 55 55 54 53
52 51 50 48 46 45 42 40 38 38 38 38 36 35 32 26 25 31 30 23 22 25 30 36 41 48 52 51 50 50 49 45 43 45 45 45 45 45 47 48 49 50 50 51 50 50 49 49 50 51 52 51
52 50 49 48 45 44 43 40 38 38 39 38 36 34 30 25 25 25 23 24 27 30 39 50 54 57 59 55 54 50 39 33 36 41 42 41 41 43 46 49 50 50 50 49 48 47 47 48 49 49 50 50
51 49 49 49 44 43 43 39 36 37 39 36 34 32 29 30 31 27 30 37 38 37 42 54 60 61 60 55 50 35 18 21 31 35 35 35 36 40 45 48 50 51 49 49 52 51 49 45 43 44 46 45
49 47 49 49 44 41 42 39 34 35 38 35 33 31 29 34 34 32 39 42 43 44 44 54 62 62 60 54 46 26 11 21 31 30 33 35 37 38 41 45 46 45 45 53 57 53 55 51 45 45 41 38
47 45 45 45 42 39 40 39 35 35 38 36 34 33 29 29 27 32 42 41 43 45 42 52 60 60 59 55 46 25 14 26 31 31 37 39 38 37 38 39 39 37 39 48 52 54 66 65 56 53 45 41
44 42 41 40 38 36 38 39 34 33 38 38 36 33 29 24 21 28 39 39 39 36 35 44 50 53 54 51 42 22 18 34 36 37 42 39 38 37 38 39 38 36 34 39 49 60 71 68 67 70 58 51
44 40 38 38 35 33 36 38 34 34 39 40 36 33 30 25 19 25 33 34 33 29 29 35 40 44 45 43 34 16 22 39 40 42 43 38 38 36 38 43 41 38 35 37 44 52 63 73 85 80 58 53
45 41 38 38 34 33 38 40 36 35 41 42 37 33 32 26 20 23 28 29 28 26 28 31 35 38 37 36 27 17 30 42 43 43 39 37 39 37 37 41 42 40 37 37 34 33 45 60 70 65 56 62
44 42 38 38 34 32 37 38 34 35 41 43 39 35 33 27 22 24 27 27 26 27 29 31 33 33 33 33 24 25 40 46 43 40 37 38 40 38 37 38 43 45 42 40 35 34 40 44 46 49 56 66

ECMWFFLT2_925_rhum_090.txt.gz
RH
67 67 68 69 69 70 69 69 72 72 66 53 43 35 34 44 50 54 60 60 58 54 49 47 49 62 70 73 79 79 75 72 70 73 78 83 83 80 79 77 73 53 43 57 53 46 45 33 30 33 30 28
68 68 69 70 70 71 72 76 76 63 45 31 29 32 40 53 57 56 58 56 58 56 48 44 42 54 62 63 70 72 71 70 69 70 72 76 76 74 72 73 70 48 33 47 53 42 36 31 30 32 30 28
69 69 71 75 76 77 76 72 60 43 32 32 41 51 54 56 57 61 60 53 54 53 48 44 42 50 59 62 66 68 66 64 67 70 70 71 72 70 68 67 55 37 34 51 59 43 30 27 26 26 23 22
70 65 63 65 60 56 51 43 38 43 48 50 62 68 61 55 54 59 59 53 50 49 47 46 44 47 55 64 66 65 62 60 64 67 69 71 72 69 68 61 41 29 34 46 51 40 30 25 23 22 20 20
53 47 44 42 36 36 37 38 42 58 65 62 71 71 60 55 53 50 51 51 51 51 49 47 46 44 54 67 66 62 59 58 62 63 66 69 67 68 68 55 37 34 35 37 40 35 32 26 24 23 21 22
39 41 41 39 39 43 46 50 50 57 65 63 64 61 55 53 51 49 51 53 53 53 49 47 45 43 53 62 58 56 55 54 57 58 61 60 57 60 59 47 37 39 36 36 38 36 35 31 30 29 26 26
52 55 55 52 50 52 55 57 56 57 59 57 54 51 51 51 50 52 56 55 52 50 46 44 44 44 48 48 45 47 46 44 46 48 51 49 48 47 44 41 39 39 37 38 38 37 38 36 36 35 33 32
55 57 60 56 52 58 63 60 57 56 53 51 49 47 47 48 48 50 52 50 47 46 44 44 44 44 43 42 43 43 41 41 40 40 41 41 40 39 38 38 39 38 38 38 38 38 38 39 38 37 36 35
46 48 52 51 52 57 59 57 54 53 50 48 47 45 45 45 46 46 46 45 43 43 42 42 43 43 44 43 44 44 43 42 41 40 39 40 39 39 38 38 38 38 38 39 38 38 38 40 39 38 38 37
44 44 46 49 51 53 52 51 49 46 45 43 42 41 42 42 42 42 41 40 39 38 36 36 37 39 42 44 45 45 44 43 44 43 40 41 41 40 39 39 38 37 38 40 40 39 39 40 40 39 39 38
41 41 42 44 44 46 46 45 44 41 39 36 36 36 37 38 37 37 36 36 35 33 31 30 31 34 39 43 45 46 45 44 46 46 44 43 42 42 42 41 41 39 39 41 42 42 42 41 40 40 39 39
41 41 41 42 43 45 47 45 45 44 40 38 37 38 38 38 37 37 37 37 36 33 29 26 26 32 39 43 45 46 46 46 47 49 49 47 46 46 46 45 44 42 40 43 46 46 45 44 42 41 41 41
41 42 43 43 44 47 48 48 47 46 44 43 42 42 41 40 40 39 38 38 36 33 29 24 21 28 40 46 48 47 47 50 52 53 53 52 52 50 49 49 47 45 44 45 48 48 46 45 45 45 44 44
41 42 43 43 43 45 46 46 46 46 45 45 45 44 43 42 41 37 36 36 34 32 28 23 19 25 40 48 49 50 50 53 55 55 56 55 54 53 51 50 47 45 45 46 47 47 46 46 48 49 48 47
40 40 41 42 41 41 41 42 43 44 44 45 45 44 43 43 40 35 33 33 32 31 26 22 18 23 39 47 49 52 52 53 55 56 57 56 55 54 52 50 47 45 44 46 48 49 49 48 49 49 48 47
37 37 38 38 39 39 39 40 41 42 43 44 45 44 43 42 40 35 31 31 30 29 26 20 16 21 36 46 48 51 52 52 53 54 54 54 53 51 49 47 45 44 46 49 52 53 53 51 51 50 49 48
40 40 39 39 39 39 40 41 40 41 41 43 43 43 42 40 40 35 30 29 28 28 25 17 13 19 31 41 45 47 48 49 48 49 49 47 44 42 42 43 44 47 51 54 55 55 54 54 52 51 50 49
47 47 46 44 42 40 41 41 40 40 40 41 41 41 41 40 39 34 29 26 26 26 22 14 12 17 27 35 39 41 42 44 45 44 43 39 37 38 42 48 51 53 55 55 56 55 55 54 52 52 51 50
50 50 48 47 45 42 40 39 40 40 39 40 40 40 40 39 37 33 29 24 23 23 18 13 13 16 26 32 34 36 38 41 42 40 39 38 38 40 44 48 50 51 53 53 53 53 52 51 50 48 46 44
51 50 49 48 47 44 41 39 39 39 39 39 39 39 39 37 35 32 28 23 20 19 14 14 17 20 27 30 31 34 36 38 39 39 39 39 40 41 42 43 44 45 45 45 45 44 44 43 42 40 40 39
51 51 50 49 48 47 44 42 40 40 40 39 38 37 35 34 32 29 26 21 18 17 14 19 26 31 34 34 34 35 36 37 39 40 38 36 37 38 39 40 42 42 43 44 43 43 42 41 42 41 43 45
51 50 50 49 48 48 46 45 43 42 40 38 37 34 32 31 28 27 25 20 21 22 20 27 36 43 46 45 44 41 38 36 33 28 25 27 30 32 36 38 41 43 45 47 46 46 45 43 43 42 43 45
47 46 46 45 44 42 42 43 42 39 39 40 37 34 33 30 28 28 25 25 31 34 31 35 43 49 53 53 51 47 41 31 19 13 15 23 27 29 31 33 37 40 42 45 45 44 42 39 38 38 38 38
43 42 40 39 36 35 34 36 38 36 36 40 39 37 34 30 30 28 27 33 40 41 41 42 47 53 56 56 54 50 43 30 13 12 21 29 33 32 29 28 30 35 39 40 37 35 34 31 28 25 25 27
42 39 37 36 33 31 30 31 36 35 32 39 41 38 35 30 28 24 28 39 41 41 42 42 45 49 50 51 52 49 43 30 11 12 28 36 36 35 34 32 30 34 36 36 38 37 32 25 20 20 23 28
41 38 35 35 33 31 30 29 35 36 31 37 41 39 35 29 25 22 28 36 35 35 35 35 38 40 41 42 43 41 37 25 10 15 34 40 37 36 38 36 32 32 35 41 46 43 45 42 31 28 32 35
42 39 36 34 33 31 29 28 34 36 32 36 41 39 34 29 25 21 24 30 29 29 29 30 33 33 35 36 35 35 31 19 10 24 43 42 39 40 39 34 32 32 33 42 47 51 65 62 45 41 42 43
42 40 37 35 34 32 28 28 33 34 32 37 40 39 36 31 27 22 23 28 27 27 28 30 32 31 32 33 32 32 27 18 19 37 46 39 39 44 41 38 38 34 28 34 47 62 71 64 64 71 60 48
41 40 39 37 35 32 28 28 31 31 31 33 38 42 40 33 30 25 23 27 27 27 29 30 30 31 31 31 32 30 26 28 37 45 41 35 41 43 42 43 43 35 29 34 43 53 61 67 86 87 60 50
42 40 40 39 37 34 30 29 30 29 28 29 38 45 41 36 33 28 24 25 27 27 29 30 30 30 31 31 31 29 29 38 45 42 35 37 42 42 41 43 44 39 37 42 39 40 50 60 71 67 54 62
43 41 41 41 39 35 31 30 28 26 23 26 38 45 41 39 36 31 27 23 24 28 30 30 30 30 31 32 30 30 36 42 42 37 36 41 42 42 43 42 43 43 42 43 41 43 50 50 49 49 52 61

ECMWFFLT2_925_rhum_093.txt.gz
RH
70 71 73 75 77 75 75 75 72 63 59 67 71 68 65 61 62 67 66 66 66 64 60 58 60 65 67 71 74 74 73 70 74 76 77 80 79 77 76 74 66 62 72 78 75 75 62 37 26 26 22 21
68 70 69 68 69 73 79 78 75 70 70 77 76 67 58 54 55 59 61 61 63 65 63 58 58 65 68 71 73 73 70 68 71 75 76 78 78 76 76 71 48 37 53 65 62 61 56 37 22 22 20 19
68 65 55 51 55 67 74 73 75 75 71 69 67 63 54 52 52 51 55 56 57 63 60 51 52 67 75 73 73 71 68 65 67 72 74 75 75 74 76 71 42 25 33 44 48 44 39 30 23 23 22 20
61 46 37 48 61 64 61 63 73 73 66 63 66 64 56 54 51 48 55 56 55 54 51 45 46 62 75 73 71 70 67 65 65 68 68 68 67 66 71 65 40 27 28 29 33 34 31 28 27 26 25 23
49 41 37 51 65 62 55 61 69 67 63 60 59 58 55 53 51 50 57 58 54 49 46 46 44 49 57 58 59 60 58 59 63 66 66 65 61 60 62 51 34 31 31 29 29 30 31 30 29 28 28 27
56 58 56 61 69 65 58 59 59 58 56 53 51 51 51 51 53 53 55 53 48 46 45 45 44 44 45 44 44 45 45 45 49 55 60 62 60 57 50 39 35 35 33 33 33 33 34 33 33 33 31 31
69 68 68 72 73 64 56 55 53 52 49 48 47 47 48 48 50 49 48 45 42 43 43 43 43 44 44 43 42 42 42 42 41 43 46 48 49 47 41 38 38 37 37 36 35 36 37 37 37 37 36 35
60 61 62 64 65 59 55 53 49 48 45 45 44 43 44 44 44 43 42 40 39 39 38 38 38 38 39 40 42 43 43 43 43 43 42 41 41 42 41 41 40 40 40 38 37 38 39 40 40 40 39 37
52 53 53 54 56 54 52 50 47 44 42 40 39 39 39 39 39 39 39 37 37 36 33 33 31 29 31 34 38 41 44 44 44 44 45 44 43 43 43 43 43 43 42 40 40 39 39 41 40 41 42 40
49 49 50 50 50 49 48 45 44 41 39 37 36 37 36 37 37 37 37 37 37 36 34 32 28 26 25 30 36 40 43 45 45 46 48 49 48 47 47 47 46 46 46 45 43 41 40 41 41 42 43 43
45 46 46 47 46 46 45 44 43 41 41 40 39 38 38 38 38 39 38 37 37 35 34 32 27 24 23 28 35 42 45 46 47 48 49 51 52 52 51 50 50 50 49 48 47 44 43 43 43 42 43 45
43 44 45 45 45 45 44 44 43 43 43 42 41 41 40 41 41 41 39 37 36 33 31 29 26 22 21 25 31 39 45 47 47 48 50 52 53 53 53 53 52 51 51 50 48 46 44 44 44 43 43 45
42 43 43 43 43 43 43 43 42 43 42 41 42 42 42 42 41 40 39 37 34 32 29 26 24 21 18 20 25 31 38 44 47 48 50 52 53 53 53 53 53 52 51 50 49 47 45 43 45 46 46 46
40 40 40 41 41 41 41 41 41 41 41 41 41 42 42 41 40 39 38 37 35 33 30 25 22 19 16 15 18 24 30 37 42 45 47 48 49 49 49 49 48 48 47 47 46 45 45 45 48 50 51 50
39 40 40 40 40 41 41 41 42 42 42 42 41 40 40 40 39 39 38 37 35 33 30 25 21 18 15 13 15 20 24 29 34 37 40 42 43 42 41 39 38 39 40 41 41 44 46 48 51 53 54 53
42 43 43 43 43 43 43 43 43 42 42 40 40 40 39 39 39 38 36 34 32 30 27 24 20 17 15 15 15 18 22 26 29 31 31 32 34 33 32 30 29 31 33 35 38 42 46 48 51 52 53 53
46 47 47 45 45 44 42 43 42 41 41 40 40 40 39 39 37 34 31 29 27 26 23 21 20 19 18 19 19 19 23 25 26 28 27 26 26 26 25 24 24 24 27 29 32 36 40 43 45 46 47 47
48 49 49 48 46 45 44 43 42 42 41 41 40 39 38 36 33 30 27 26 25 22 20 19 19 21 24 26 26 25 26 28 28 27 25 23 24 23 22 22 23 23 24 25 26 28 30 32 33 34 35 34
50 50 50 49 49 47 46 45 45 45 43 42 41 38 37 34 32 30 26 25 23 21 20 21 23 24 28 31 30 31 30 32 31 26 22 19 18 18 19 20 20 21 23 24 24 24 25 25 25 23 22 21
49 49 49 49 48 47 46 45 44 43 41 39 38 37 36 34 32 29 26 24 22 22 24 26 29 29 31 33 32 32 32 32 30 26 21 15 14 17 19 20 19 20 20 21 22 22 22 21 20 20 18 15
43 43 44 43 42 42 40 39 38 36 34 33 33 34 33 33 32 28 26 23 21 26 30 32 35 36 36 36 35 32 30 29 28 25 20 13 14 19 22 22 22 21 21 22 21 20 18 17 16 16 15 14
41 41 41 40 40 39 37 35 33 31 29 28 29 30 32 32 31 27 24 21 24 31 36 37 38 40 40 38 36 32 28 25 23 22 18 13 15 19 24 26 26 25 25 23 21 19 16 15 15 14 14 13
41 41 41 41 41 40 39 36 32 30 28 27 30 33 35 34 31 26 21 22 29 34 35 36 36 37 36 35 33 30 28 25 23 21 15 13 18 19 22 27 28 25 24 23 20 18 16 14 14 12 11 10
38 38 37 38 40 41 40 37 31 29 28 29 35 40 40 37 33 25 19 23 28 31 31 31 32 32 31 30 29 28 27 27 26 21 16 22 26 22 23 25 22 23 23 21 17 16 16 14 12 10 11 16
37 38 38 38 40 41 40 36 29 27 28 30 36 42 41 37 33 26 21 23 26 28 28 29 29 29 30 28 28 28 28 29 25 20 23 30 29 28 35 29 23 26 23 22 25 23 19 14 13 17 20 24
40 41 41 41 41 40 39 34 26 26 29 30 33 39 38 35 34 30 25 22 25 27 27 30 30 29 29 28 28 29 29 29 24 26 33 33 30 36 43 34 32 35 28 35 42 37 39 35 23 22 25 29
42 42 42 42 42 39 37 32 24 23 26 25 24 27 32 36 39 35 29 24 24 26 28 31 31 29 29 29 30 29 30 28 26 34 39 33 35 45 43 34 39 39 32 42 47 49 64 56 35 33 36 38
44 43 42 42 41 38 34 28 22 19 18 17 14 18 33 43 42 36 33 29 25 23 27 31 30 30 30 29 30 28 30 31 31 39 36 29 40 47 42 40 44 37 30 41 51 62 70 58 61 69 57 44
45 43 42 41 40 38 32 25 21 19 18 17 12 16 32 43 40 38 37 34 29 24 25 29 31 32 31 31 30 29 34 34 33 37 31 31 42 43 41 46 46 37 37 44 46 54 62 67 90 88 58 46
45 42 42 42 41 37 33 28 25 23 22 21 18 14 22 35 40 41 41 39 36 30 26 28 31 32 31 32 31 31 37 35 31 34 32 36 43 42 44 47 46 43 44 45 36 40 54 63 75 69 56 58
45 43 42 41 41 37 33 31 28 25 24 23 24 17 15 29 42 44 43 42 41 36 31 29 29 30 31 32 31 34 40 36 32 35 37 41 43 43 47 46 46 47 46 46 41 45 52 50 51 53 57 64

ECMWFFLT2_925_rhum_096.txt.gz
RH
77 78 79 78 75 76 80 80 80 81 80 79 74 58 52 53 57 66 70 74 76 79 66 57 77 82 71 71 72 72 72 74 75 77 77 76 75 76 81 78 68 58 62 68 66 65 49 28 21 19 18 16
60 57 57 62 65 67 73 77 76 72 68 67 64 56 53 52 51 55 57 59 60 58 51 45 64 83 80 77 78 78 77 76 74 76 77 76 74 72 75 78 68 48 51 62 63 65 53 33 26 25 22 20
49 38 37 43 47 48 51 56 58 57 57 57 57 55 54 52 50 55 56 55 51 47 48 44 48 67 80 84 84 76 67 68 74 76 77 78 77 76 73 72 60 40 40 49 53 54 45 32 30 30 27 26
40 30 29 32 36 40 43 45 49 52 54 53 51 50 50 52 51 53 55 51 49 46 46 46 43 49 60 70 72 60 47 52 68 74 75 78 80 74 62 53 45 37 37 38 40 39 35 31 31 32 30 31
33 35 38 40 42 46 48 48 51 53 52 51 48 48 48 50 50 51 51 47 46 45 43 43 43 42 44 48 49 45 41 43 52 58 58 60 60 53 44 40 39 39 39 38 38 37 36 34 32 31 31 32
44 51 53 54 53 53 54 53 54 52 50 49 46 47 47 47 47 46 45 43 41 40 39 38 37 37 36 37 37 37 40 42 44 45 45 45 43 41 40 41 41 40 40 40 41 40 40 39 36 34 32 32
62 64 63 62 58 54 54 52 50 49 47 46 44 44 44 43 42 41 40 40 38 37 36 35 34 33 32 31 31 30 32 36 40 43 45 45 44 44 43 42 43 43 43 42 43 43 43 43 41 39 35 33
63 62 61 58 55 52 49 48 46 45 43 41 41 40 40 40 39 39 39 37 37 37 36 35 35 34 34 32 30 28 27 28 32 37 40 43 45 46 46 46 47 47 46 46 46 46 46 45 45 43 40 36
54 54 53 52 50 48 46 45 43 41 40 39 38 38 37 38 38 37 37 38 37 37 36 36 36 34 33 32 29 27 25 25 27 31 35 38 42 44 47 49 50 50 50 50 49 49 49 48 47 46 44 40
50 50 50 49 47 47 45 44 43 42 41 40 39 38 37 37 37 37 37 38 37 37 37 36 36 34 31 29 26 24 23 24 24 28 31 35 38 41 45 47 49 51 51 51 51 50 50 49 48 47 45 43
49 48 47 47 46 45 44 43 43 42 41 40 39 38 38 38 37 38 38 39 39 39 38 38 37 35 32 29 26 23 21 21 21 23 25 28 30 33 36 39 42 44 46 48 49 49 49 48 47 46 45 43
45 45 44 44 44 43 43 42 41 41 41 40 39 39 39 40 40 39 40 40 40 40 39 39 37 36 35 32 29 25 22 21 20 19 19 20 20 22 24 26 28 30 33 35 37 39 40 41 41 42 42 41
42 42 42 41 41 41 41 41 41 41 42 41 41 42 41 41 41 41 42 41 40 39 38 37 35 35 34 32 31 28 26 24 21 19 19 18 18 18 17 18 19 19 20 21 23 25 26 29 32 35 38 41
40 40 40 40 41 41 42 41 43 43 42 43 43 42 42 42 43 42 41 40 38 37 36 34 33 32 30 29 28 27 26 24 22 21 19 19 18 17 17 17 16 16 16 15 16 17 18 20 24 29 34 39
40 40 40 42 43 43 43 43 43 44 43 43 44 43 43 43 43 42 40 38 37 36 34 33 31 29 27 26 25 24 24 22 22 21 21 20 18 18 17 16 16 16 15 15 15 15 15 16 17 21 25 29
41 42 43 44 45 44 44 44 44 45 45 45 45 45 44 44 42 40 39 37 36 34 32 30 28 27 26 25 24 23 22 22 21 21 20 20 19 18 17 16 15 14 14 14 14 13 13 13 13 13 15 18
44 45 47 46 47 47 46 47 47 47 47 46 45 44 43 41 40 38 36 34 32 30 29 28 28 27 27 26 25 24 23 23 21 20 19 18 18 17 17 16 15 14 13 12 12 12 11 11 11 11 11 11
49 49 50 50 49 49 48 48 47 46 44 42 41 39 38 36 34 33 32 30 28 27 27 28 30 31 32 31 30 28 26 24 22 21 18 17 17 16 15 14 14 13 11 11 11 10 10 10 10 10 9 9
49 48 48 47 46 44 43 42 40 39 36 35 34 32 32 31 30 30 28 27 24 24 26 29 32 34 36 36 32 31 28 26 23 20 18 17 15 14 13 12 12 11 11 11 10 10 10 9 9 8 8 9
42 42 41 40 40 39 38 38 37 36 34 33 32 30 29 28 28 28 27 24 22 23 26 29 32 33 35 33 31 30 28 25 22 19 18 15 14 15 13 12 12 11 11 10 9 9 9 8 8 8 8 8
36 35 34 34 34 35 36 37 37 37 35 34 31 28 27 27 26 27 27 22 20 22 25 28 29 30 31 29 29 28 26 24 21 19 19 15 15 15 12 13 14 13 12 10 10 9 8 8 8 8 9 9
32 30 29 30 30 31 32 33 35 35 34 32 30 26 24 22 22 25 25 19 18 19 23 26 26 27 28 27 27 25 23 22 20 21 20 18 16 13 14 19 19 17 15 14 11 9 8 8 8 9 9 8
31 31 32 33 32 33 34 34 34 32 31 29 26 24 21 19 19 22 20 17 16 17 20 23 24 26 26 25 25 23 22 21 21 23 21 20 17 12 19 24 23 22 20 16 12 11 10 9 10 10 9 13
35 35 35 35 35 35 36 36 34 30 28 27 25 24 22 21 22 20 18 18 16 16 18 20 22 24 24 24 24 23 24 23 23 24 22 21 15 15 25 24 23 29 24 18 14 13 14 12 12 11 15 26
36 36 36 36 36 36 36 35 32 28 24 22 21 20 20 21 21 20 22 22 20 20 19 19 21 22 22 23 23 23 25 25 25 24 22 19 12 20 31 23 28 35 25 25 28 25 25 19 16 20 26 34
37 38 38 38 38 36 36 35 31 25 18 14 13 13 13 14 16 19 24 25 25 25 21 21 21 21 23 22 23 25 25 26 26 24 22 18 15 26 30 24 35 38 29 41 46 40 47 38 24 25 30 35
39 41 41 40 39 37 36 34 30 23 17 13 10 9 9 9 11 14 19 24 29 30 26 25 23 23 24 23 25 26 26 28 27 26 23 19 24 32 28 27 40 37 34 51 51 49 62 55 42 41 37 36
42 43 44 42 40 38 37 35 29 23 20 17 13 11 9 9 9 9 13 21 29 31 31 29 26 26 25 25 28 27 30 32 29 30 25 22 31 34 31 39 45 35 34 49 50 57 67 62 72 76 55 43
45 46 46 43 41 40 39 35 30 26 25 23 19 15 13 11 11 11 15 22 29 32 33 32 29 29 27 26 26 26 33 35 32 31 27 27 34 31 37 52 50 34 39 48 42 55 72 77 95 89 58 46
47 48 47 45 42 41 40 36 31 28 28 27 25 21 17 15 14 15 19 24 30 32 34 35 34 35 33 31 28 26 33 35 32 32 29 31 32 30 41 53 49 41 47 49 34 44 62 65 76 72 59 58
49 50 49 47 45 42 41 37 32 29 30 31 29 26 22 19 17 16 18 21 24 26 31 36 38 40 39 38 33 29 32 31 31 33 31 33 31 34 45 49 49 48 51 50 41 48 56 50 54 56 59 66

ECMWFFLT2_925_rhum_099.txt.gz
RH
66 60 53 46 36 28 34 48 55 55 55 52 49 46 45 47 48 50 53 55 58 50 47 63 80 85 81 84 88 82 82 84 82 80 79 78 79 84 81 71 57 51 59 66 67 65 53 36 29 30 27 24
49 41 32 28 28 34 45 54 54 53 51 50 49 48 48 48 48 48 48 46 46 45 43 46 59 79 87 88 81 67 69 81 86 86 85 87 86 79 63 46 38 37 41 47 48 47 40 35 36 35 31 28
36 29 26 29 36 44 49 51 50 50 50 48 48 49 50 50 50 49 48 47 45 45 46 43 44 57 70 71 57 42 43 56 70 78 79 78 68 53 41 35 36 35 35 35 35 36 36 36 37 37 35 33
30 31 34 39 43 47 49 51 51 50 49 47 47 48 49 49 49 48 46 45 44 43 41 41 39 38 44 44 37 32 30 33 42 49 54 53 45 39 38 38 38 37 38 37 36 36 35 37 36 36 36 37
35 40 41 44 47 49 50 51 50 49 48 47 47 46 46 46 45 45 44 43 41 41 39 37 37 35 34 34 31 31 29 29 30 32 35 37 36 37 38 38 39 38 38 38 39 39 37 38 37 37 37 37
42 46 47 48 50 51 51 51 50 48 47 45 45 45 44 44 43 42 42 41 39 38 38 36 36 35 34 34 34 32 31 30 28 28 29 31 33 34 35 36 36 35 36 37 38 39 39 38 38 39 39 37
49 52 52 53 52 52 50 49 47 46 45 44 43 42 41 41 40 40 39 38 38 37 36 36 35 35 35 34 34 34 32 31 29 28 27 26 27 28 30 29 29 30 31 32 33 36 37 38 39 39 38 38
56 56 55 53 51 49 48 46 45 43 42 40 40 39 38 38 37 37 37 37 37 36 36 36 36 36 36 36 36 36 34 34 33 31 29 28 27 26 25 24 25 25 26 26 27 29 30 33 35 35 35 34
55 54 52 51 49 47 46 44 43 42 41 40 39 38 37 37 37 36 36 37 37 37 37 37 38 38 38 38 38 38 37 37 37 35 35 33 31 29 27 25 23 22 22 22 21 22 22 24 25 25 26 25
51 50 49 48 47 46 45 44 43 43 41 40 39 38 38 37 37 37 37 38 39 39 40 41 41 41 40 40 39 39 38 38 37 37 36 35 34 32 30 28 26 24 22 20 20 19 18 18 18 18 17 17
49 49 48 47 46 45 44 43 42 41 40 40 39 38 38 38 38 39 40 41 42 42 43 43 42 42 42 41 40 39 38 37 36 35 34 34 33 32 32 31 29 28 27 25 23 22 21 19 18 17 16 15
47 46 45 45 44 43 42 41 40 40 40 40 39 40 40 41 41 42 44 44 45 44 44 44 43 42 41 40 39 38 37 36 35 34 33 32 31 30 30 30 29 29 29 28 27 26 25 23 21 19 17 16
43 43 42 42 41 40 40 40 40 40 42 42 42 43 44 44 46 45 46 47 46 46 45 44 42 41 40 39 38 36 35 34 33 32 31 30 29 29 28 28 27 27 27 26 26 26 25 25 24 22 20 18
41 41 41 40 40 40 41 40 42 44 44 46 46 47 47 47 48 47 46 45 44 43 42 40 39 38 37 36 35 34 33 32 31 29 28 27 26 26 25 25 24 24 25 24 23 23 23 23 23 23 22 21
40 40 40 40 41 42 43 43 45 47 48 48 49 48 48 47 45 43 41 39 38 36 35 34 33 33 32 32 32 31 30 29 29 27 26 25 24 23 22 22 21 21 21 21 22 21 21 21 21 21 21 21
40 40 40 41 44 45 46 48 49 49 48 47 46 44 42 40 38 36 35 33 32 30 29 29 29 30 29 29 29 28 27 27 25 25 24 23 22 21 20 20 19 18 18 18 19 18 18 18 18 18 18 19
40 41 43 45 48 49 48 48 46 43 42 39 38 37 35 34 33 32 31 29 28 26 26 26 27 27 27 27 27 26 25 24 22 22 20 19 18 17 17 17 16 16 16 16 15 15 16 15 16 16 16 16
44 45 47 48 47 45 42 40 38 36 35 35 34 33 33 32 31 29 28 26 23 22 22 22 24 24 25 25 24 24 22 21 19 18 16 15 14 14 13 13 13 13 12 13 13 13 12 12 13 12 13 14
47 47 45 42 39 36 35 34 33 33 32 32 32 32 31 29 27 25 23 21 18 17 17 18 20 21 22 22 22 21 19 18 17 14 13 12 11 11 10 10 10 10 10 10 10 10 10 10 10 11 12 12
44 41 38 34 33 31 30 30 29 29 29 29 28 28 27 25 23 20 18 16 13 13 14 15 17 18 19 19 18 18 17 16 15 14 12 10 11 9 8 8 8 8 8 8 8 8 8 8 9 10 10 10
38 34 32 30 29 29 29 29 29 28 28 27 25 24 22 20 17 15 13 11 11 11 12 13 14 15 16 16 16 15 16 15 14 14 12 11 10 9 9 8 8 8 8 8 8 7 7 8 8 8 9 10
34 30 29 29 29 30 30 30 30 30 29 27 24 21 17 14 11 9 8 8 9 10 11 12 13 14 14 14 14 14 14 13 14 14 13 13 11 9 10 10 12 11 11 10 8 7 7 7 6 7 10 12
30 29 29 31 31 32 32 32 33 32 30 28 23 19 14 10 8 7 6 6 8 9 10 11 12 12 12 13 13 13 13 13 14 14 13 14 11 11 11 10 16 17 14 11 7 7 6 5 7 9 13 17
29 31 32 33 33 34 35 34 35 34 31 28 23 19 14 10 8 7 7 8 9 10 11 13 13 13 13 14 13 13 15 15 17 16 15 14 11 13 13 9 17 19 14 13 11 10 8 7 8 11 21 31
31 33 34 35 35 36 37 37 37 35 32 28 23 20 16 11 8 7 8 8 10 12 14 15 15 16 15 16 16 17 18 18 19 18 17 15 12 15 14 11 22 22 15 19 21 20 18 14 14 21 29 39
35 35 36 36 37 38 39 39 38 36 33 28 24 21 17 13 9 8 8 8 10 12 14 15 16 16 16 17 19 20 20 20 22 21 19 19 19 21 17 15 27 25 20 32 35 32 31 23 23 32 32 34
37 38 38 38 39 40 40 40 39 37 34 28 25 23 19 16 12 10 9 8 9 11 12 13 14 16 16 18 20 21 22 22 23 23 21 22 26 28 23 25 33 28 29 42 42 36 33 28 28 31 32 34
40 40 41 41 41 42 42 41 40 38 34 29 26 25 22 20 17 15 13 11 10 10 11 12 14 16 17 18 22 24 24 24 25 24 22 24 27 26 28 37 37 28 34 42 42 42 34 35 43 36 33 36
42 43 43 43 44 44 43 42 41 39 35 31 29 28 26 24 23 21 19 16 14 12 11 12 13 15 18 20 24 27 27 26 27 25 23 25 27 24 29 43 39 30 41 40 37 50 44 40 51 44 39 37
43 45 45 45 45 45 44 43 42 42 40 35 32 31 30 29 27 27 25 23 20 16 14 14 15 18 21 24 28 31 30 29 29 27 26 28 28 26 32 44 41 35 45 41 32 49 51 42 49 50 46 38
45 46 47 47 47 47 47 46 46 46 43 37 34 33 33 32 31 30 30 27 24 20 16 15 16 19 24 27 29 34 34 31 32 31 29 29 26 28 36 41 42 41 46 45 39 49 53 45 49 53 50 43

ECMWFFLT2_925_rhum_102.txt.gz
RH
67 56 45 34 31 38 46 52 52 46 42 43 43 42 42 43 47 49 52 56 52 48 54 68 81 89 91 86 79 78 85 85 87 89 89 86 64 41 36 35 33 38 48 49 39 31 29 28 28 27 30 38
47 38 31 29 32 39 42 44 44 43 43 42 41 42 43 43 44 44 43 43 43 43 42 45 57 77 82 65 50 49 59 69 77 82 79 62 37 25 26 29 29 31 34 34 31 28 28 26 26 25 23 30
36 30 29 32 36 38 40 43 43 44 44 43 44 44 44 44 44 43 43 43 42 42 41 40 39 49 53 40 33 33 35 40 46 50 48 36 26 26 25 25 26 28 29 27 27 25 25 25 24 23 23 25
31 32 35 38 40 41 43 45 45 45 45 45 45 44 45 44 43 42 42 42 41 40 39 39 36 36 36 33 34 33 32 32 32 32 31 29 27 27 26 26 25 25 25 24 23 23 22 22 22 22 23 24
36 40 41 42 43 44 46 47 47 46 45 45 45 44 44 42 42 41 40 39 38 38 36 36 35 34 35 35 35 34 35 34 33 33 32 32 31 30 29 28 28 27 27 26 25 24 24 22 22 22 20 23
42 45 44 45 46 47 48 48 47 46 46 45 44 43 42 41 40 38 38 37 36 36 36 36 36 36 37 37 37 37 37 37 37 37 36 36 35 35 34 33 33 33 32 32 30 29 29 27 24 24 21 21
46 47 47 48 48 49 49 48 47 46 45 43 42 41 39 38 37 36 35 35 35 35 36 36 37 38 39 39 40 40 40 41 40 40 39 39 38 38 38 37 37 36 36 35 35 34 32 31 29 28 26 24
49 50 50 50 49 49 47 46 45 44 43 41 40 39 38 37 36 36 36 36 36 37 38 38 39 40 40 41 41 42 42 42 41 42 41 40 40 39 38 37 36 35 36 35 35 36 34 34 33 32 31 29
52 52 51 50 48 47 46 45 44 43 42 41 40 39 38 37 37 37 36 37 38 39 41 41 42 42 43 43 43 43 42 42 42 41 40 40 39 38 37 36 35 34 33 33 32 32 33 33 33 33 33 32
52 51 49 48 48 47 46 45 44 43 42 40 39 38 38 37 38 39 39 40 41 43 43 43 44 44 44 44 43 42 41 41 40 38 38 37 36 35 35 34 33 33 31 31 30 30 30 30 30 30 30 31
49 49 48 47 47 46 44 43 42 41 40 39 39 39 39 40 41 43 44 44 45 45 45 45 44 43 43 41 40 39 37 36 35 34 33 32 31 30 30 29 29 29 28 28 28 27 27 27 28 27 28 28
48 48 47 46 45 44 42 41 40 39 39 39 40 41 42 44 46 46 47 46 45 44 43 42 40 38 37 35 34 33 32 31 29 28 27 26 26 25 24 25 25 25 25 25 25 24 23 24 24 24 25 25
48 46 45 43 42 41 40 40 39 39 40 41 43 45 46 47 47 45 43 41 39 37 36 34 32 32 30 29 29 28 27 26 25 24 24 22 21 21 21 23 22 20 22 23 23 22 20 20 20 22 21 22
44 43 42 41 41 40 39 39 39 40 43 46 47 47 45 43 40 37 35 33 32 30 29 28 27 27 26 26 25 24 24 23 21 21 21 19 19 18 19 22 20 17 19 20 21 19 16 17 18 19 20 19
42 41 41 40 40 39 39 39 41 44 47 46 45 41 36 33 31 30 29 28 28 27 27 26 24 23 22 23 22 20 19 18 17 17 16 15 13 14 18 20 18 18 19 20 21 17 13 13 14 16 18 18
41 40 40 39 39 39 40 43 45 46 44 40 35 31 28 27 26 26 25 24 23 23 23 21 20 20 19 19 18 16 14 13 12 13 13 12 10 12 17 18 17 18 21 23 22 15 12 12 10 12 14 13
40 39 39 39 40 42 44 45 44 39 34 30 27 25 24 23 23 22 22 20 18 19 19 16 15 16 17 16 13 11 10 10 11 11 10 10 10 11 14 16 17 18 21 23 19 14 13 12 12 12 11 10
39 39 40 41 44 45 44 40 35 30 27 25 24 23 22 21 20 18 17 15 13 15 18 18 15 14 16 14 9 10 9 11 14 12 10 11 11 12 14 17 17 18 21 18 14 13 12 12 13 11 10 11
40 41 43 45 45 42 37 32 27 26 25 25 24 23 22 19 17 14 11 10 9 11 15 20 21 18 15 11 12 16 12 12 19 17 14 16 16 16 19 22 22 21 22 19 13 11 12 12 10 10 12 14
43 45 46 44 41 35 29 26 25 26 26 26 25 24 22 19 16 13 9 7 7 9 10 16 21 19 12 10 16 21 19 21 27 23 18 20 23 23 24 28 29 24 25 24 15 11 12 10 9 12 15 19
46 46 44 40 34 28 25 26 27 28 28 28 26 24 23 20 18 14 10 7 6 8 9 12 16 16 10 9 17 22 25 29 32 28 22 25 28 27 28 31 31 26 27 27 18 14 14 12 13 15 18 23
47 44 39 34 29 26 27 29 29 30 30 29 28 27 25 23 21 16 11 8 7 8 10 9 12 14 10 13 23 27 30 34 36 33 26 28 31 30 32 31 28 29 31 30 22 19 21 19 17 17 22 26
44 40 35 30 28 29 30 31 31 31 32 31 30 29 28 26 23 19 15 10 8 8 8 10 12 12 10 17 27 30 33 35 38 36 29 31 32 33 36 30 31 34 32 32 28 27 28 24 20 20 26 31
41 37 34 32 31 33 33 33 33 33 33 33 32 31 30 29 26 22 18 13 9 7 7 10 11 10 9 16 24 30 34 32 30 30 28 30 31 36 35 27 31 36 33 31 26 24 27 25 23 26 32 36
39 37 35 35 35 34 34 34 35 35 36 34 33 32 31 29 27 23 19 15 12 9 8 11 13 14 14 19 25 30 30 25 21 21 22 25 28 35 33 24 29 35 31 25 17 15 19 19 24 35 41 37
39 36 34 35 35 33 33 35 37 36 37 36 34 33 31 30 28 24 20 16 14 12 11 14 19 22 20 20 26 29 28 26 25 26 27 28 26 27 27 25 33 37 29 19 14 15 16 14 17 33 43 38
39 36 32 33 36 35 34 36 38 37 38 37 35 34 32 31 30 27 23 20 18 16 15 16 20 25 22 20 24 28 30 31 31 32 33 33 30 25 20 22 31 39 34 24 18 17 16 11 12 19 26 31
39 36 31 31 35 36 36 37 38 38 39 39 36 35 34 33 32 30 27 25 23 21 21 20 20 22 22 20 22 25 29 28 28 32 32 33 34 27 17 16 23 33 39 35 25 20 16 13 17 17 16 21
39 37 33 34 37 39 39 39 40 39 38 38 37 35 34 34 33 31 30 28 26 25 25 25 23 23 22 21 21 24 28 26 26 31 32 33 34 27 21 20 20 23 37 44 36 26 19 16 18 20 19 20
40 38 37 38 40 40 39 38 39 40 37 36 38 37 36 35 33 32 31 30 29 29 29 28 27 26 25 25 24 26 29 27 26 28 30 32 32 26 26 29 23 19 28 39 39 35 31 27 24 23 23 21
41 41 40 40 41 39 38 35 35 38 37 35 36 37 37 34 33 33 33 32 31 32 32 31 30 28 27 27 26 25 31 31 26 26 28 32 32 27 27 28 23 20 22 26 30 37 40 39 36 32 28 23

ECMWFFLT2_925_rhum_105.txt.gz
RH
50 43 33 32 35 36 36 35 38 37 39 40 39 40 41 41 42 43 45 45 45 44 48 60 76 83 75 64 61 64 68 74 70 53 46 42 33 33 32 31 30 31 35 31 26 27 26 26 27 26 39 48
44 33 28 31 35 36 36 37 39 40 40 40 40 41 40 41 41 40 40 39 39 38 37 38 45 54 48 39 38 38 42 46 46 36 33 34 33 34 33 34 33 33 32 32 32 31 32 31 32 37 44 47
39 29 30 35 38 38 38 41 42 42 43 42 42 42 42 42 41 40 40 39 38 37 36 34 33 35 34 33 34 35 35 36 38 36 38 38 36 38 37 38 36 36 36 36 36 35 36 34 39 43 44 46
35 31 35 38 39 40 41 43 43 44 44 44 43 43 42 41 42 40 37 37 36 34 33 33 34 35 36 37 37 38 39 39 40 40 41 40 39 40 38 39 37 37 37 36 36 36 36 35 41 41 39 45
33 37 41 42 42 43 44 45 45 45 45 45 43 42 42 41 44 41 36 35 34 35 34 35 36 37 39 40 40 41 41 41 41 41 40 40 40 39 38 38 37 37 37 36 37 36 36 36 39 37 36 42
39 43 45 44 45 46 46 46 46 46 45 44 42 41 43 43 43 40 36 35 35 35 33 35 37 39 40 40 41 41 41 40 40 40 39 39 38 37 36 35 35 35 33 33 33 33 35 36 37 34 34 40
47 49 49 48 48 48 47 46 46 45 44 43 42 40 43 43 39 40 39 34 34 35 36 38 36 38 39 39 41 41 41 39 38 37 35 34 31 31 29 29 31 29 28 27 26 29 32 31 31 32 35 39
51 51 52 51 51 51 49 47 46 45 44 43 42 40 41 40 35 39 43 37 38 42 45 46 43 42 43 41 40 37 37 34 31 28 27 24 22 25 24 22 25 23 23 22 20 24 26 25 24 25 33 36
52 52 52 53 52 51 50 49 47 46 44 41 41 39 37 36 34 40 44 42 44 47 48 48 46 46 42 40 35 31 32 29 25 25 26 23 20 25 24 22 24 25 26 21 20 23 20 19 19 21 29 30
53 52 51 51 50 49 49 48 47 45 43 40 38 36 35 39 41 44 47 46 46 46 46 45 42 41 37 35 33 29 30 27 25 29 28 27 26 26 25 26 28 27 28 27 29 29 20 15 16 19 24 25
53 52 51 50 49 48 48 47 47 45 43 40 36 35 36 41 45 46 48 48 45 42 42 37 33 37 35 34 33 27 29 25 24 30 29 29 30 27 26 29 31 27 26 31 34 35 27 16 13 16 18 19
54 54 52 49 48 48 46 45 47 44 41 39 36 37 38 43 46 46 47 45 42 40 40 33 28 34 36 34 32 26 29 26 23 29 29 28 28 27 29 31 32 27 26 30 32 35 31 16 13 19 18 17
53 54 52 49 48 46 43 45 46 41 40 42 41 41 42 45 43 41 42 40 39 39 39 36 32 35 36 34 30 26 28 26 26 30 30 27 24 26 29 31 30 27 28 29 29 33 27 15 18 24 21 19
50 52 50 49 48 43 43 45 42 40 43 45 45 45 42 36 31 32 35 35 37 39 40 40 39 36 35 33 28 24 22 20 24 28 29 26 21 25 30 31 29 27 29 29 30 31 24 17 22 25 22 22
47 48 48 48 46 44 45 43 39 42 46 46 46 42 33 25 22 25 27 26 27 33 39 37 37 34 31 31 27 23 16 12 19 26 28 24 20 25 31 30 28 28 29 28 28 28 25 22 25 25 23 23
44 43 46 45 45 46 43 40 42 46 46 46 42 31 23 21 21 23 27 24 16 25 35 29 28 31 30 27 21 19 13 10 21 28 28 25 24 28 30 28 27 29 28 26 25 25 26 25 26 26 24 23
43 43 45 44 46 46 40 41 46 46 45 44 35 23 21 22 20 23 30 26 16 26 38 30 25 29 34 26 13 15 13 13 25 29 26 25 26 28 28 26 27 28 26 24 24 24 25 24 24 24 23 24
42 45 45 44 46 44 39 44 47 44 42 36 31 26 22 22 21 21 24 22 18 26 37 37 32 31 35 23 12 21 19 18 28 29 27 27 26 27 26 25 28 28 26 24 24 24 23 22 22 22 23 24
41 44 44 45 46 43 40 44 44 42 38 31 31 31 26 22 21 19 19 18 17 23 31 34 33 34 29 15 16 28 24 23 31 30 29 29 29 29 26 27 29 28 25 25 25 24 22 22 22 23 23 23
39 41 43 45 46 44 42 43 41 39 35 31 32 33 30 24 21 21 19 17 16 21 27 27 29 30 17 7 18 29 27 29 32 32 31 30 32 32 30 30 30 27 25 25 25 24 23 23 24 25 23 21
41 41 41 44 45 44 44 42 39 37 34 33 33 34 33 26 22 23 21 19 17 18 22 23 26 24 10 6 19 26 30 32 31 33 32 30 32 33 33 32 29 26 26 28 28 26 27 27 27 25 21 20
43 42 40 41 43 44 44 40 38 37 35 35 34 35 35 28 24 25 24 22 19 19 19 17 18 17 9 11 22 28 32 34 35 36 33 31 33 34 35 33 31 29 30 32 30 29 30 29 27 24 21 22
45 43 40 39 40 42 41 38 38 39 37 37 35 36 34 29 28 28 27 25 22 23 22 19 18 15 10 14 25 31 32 34 36 37 34 34 35 35 37 35 31 31 33 33 30 30 28 25 23 22 24 27
47 44 40 38 38 39 39 36 40 41 39 39 37 36 33 29 32 31 29 28 24 23 23 25 25 17 12 15 25 31 34 33 28 29 32 33 34 35 37 32 27 32 35 31 27 23 20 18 18 20 25 28
47 45 41 39 38 37 36 35 39 41 40 40 38 36 33 30 33 33 31 30 26 22 22 26 25 19 17 20 26 31 32 28 20 21 26 29 31 30 31 27 24 33 35 26 19 14 14 16 16 19 29 34
46 45 42 41 38 35 32 32 37 40 39 40 39 37 34 32 33 33 32 31 28 25 23 27 29 28 27 26 29 31 29 26 23 26 29 29 27 23 24 22 23 36 33 20 16 15 14 14 12 14 26 37
44 44 43 41 39 35 31 31 34 37 37 38 39 37 36 34 34 34 33 32 30 27 26 30 33 34 33 30 31 32 32 32 30 32 33 31 28 23 21 16 19 34 35 24 20 18 15 12 11 11 15 28
44 43 42 42 40 36 32 30 31 34 36 37 38 38 37 35 34 34 34 33 32 30 29 32 35 36 36 33 33 31 29 30 29 30 32 30 30 26 19 12 13 25 34 32 26 20 17 13 13 14 12 16
45 44 42 41 42 41 35 32 33 33 34 37 38 38 38 36 36 35 34 35 34 32 32 33 35 36 36 34 34 31 27 25 26 29 30 29 29 26 19 15 15 17 25 36 36 26 19 16 17 17 15 14
45 46 42 41 44 44 38 34 34 33 32 35 37 37 36 36 37 36 35 36 35 35 36 36 36 36 37 36 34 32 28 24 24 27 30 29 28 25 21 22 21 17 17 28 37 34 27 25 26 22 18 16
47 47 43 41 43 41 37 34 32 32 32 33 34 34 34 34 36 37 36 37 36 37 39 38 38 37 37 38 36 33 30 26 24 25 28 29 27 24 23 23 20 17 15 17 24 31 34 34 34 31 27 22

ECMWFFLT2_925_rhum_108.txt.gz
RH
43 35 32 37 38 37 39 39 40 40 40 40 39 39 39 40 40 42 47 49 45 42 46 60 78 82 77 70 66 65 67 71 68 60 58 54 46 44 43 39 37 35 36 34 33 35 33 34 33 37 40 41
39 33 34 37 37 37 39 40 41 40 40 39 39 39 38 38 37 36 34 34 33 31 29 32 50 67 66 56 48 46 48 53 54 45 41 43 40 38 36 35 36 33 34 32 30 31 31 38 38 33 37 42
37 34 37 38 38 39 40 41 42 42 41 40 41 40 39 38 36 35 34 33 32 31 30 28 31 42 47 42 38 38 39 42 43 38 36 36 33 32 29 30 32 27 30 30 22 25 32 39 36 28 36 42
37 36 39 39 40 40 41 43 42 42 42 41 41 39 40 42 39 35 34 32 31 30 30 31 31 34 37 37 38 38 38 36 33 30 28 26 23 22 18 20 22 17 25 26 19 26 31 29 24 22 34 41
37 37 39 40 41 41 43 42 43 42 40 41 40 39 42 45 41 34 33 31 29 31 30 33 35 36 36 35 35 31 28 24 21 23 19 15 15 15 11 13 13 10 16 17 19 27 23 16 15 19 32 39
38 40 40 41 42 43 44 43 43 42 40 40 39 41 44 43 39 32 31 31 30 32 34 36 35 33 30 27 24 20 19 16 14 22 20 13 15 15 9 10 10 9 11 10 17 22 13 10 11 17 30 34
42 42 41 42 44 45 45 44 44 42 41 40 39 41 42 38 35 34 32 31 35 38 40 42 38 34 28 22 19 17 18 14 13 20 19 13 15 14 8 9 9 9 10 9 16 17 10 9 9 14 22 25
46 45 44 45 46 47 45 45 44 43 41 39 39 39 38 34 32 38 37 34 40 44 45 44 39 36 28 21 19 16 16 12 11 15 14 10 12 12 10 12 11 9 11 11 15 15 10 8 8 12 16 18
49 49 48 49 50 49 47 46 44 43 41 39 38 36 34 32 32 41 42 40 43 43 42 35 28 29 24 19 17 14 13 11 11 13 12 10 11 12 13 16 14 10 12 13 16 14 9 8 8 12 12 14
51 51 52 52 51 51 49 47 46 43 41 38 37 35 33 37 41 45 47 46 40 35 35 28 21 26 24 19 16 12 13 11 10 13 11 8 10 12 14 21 18 10 15 18 19 16 10 8 7 10 12 13
51 52 52 52 50 50 48 47 46 44 41 38 37 33 31 39 45 46 48 45 37 34 34 26 23 28 26 20 15 12 12 10 10 13 10 7 9 9 13 23 20 10 16 21 21 18 11 8 8 10 11 12
52 52 51 50 49 48 47 46 46 43 40 37 35 32 30 37 43 45 45 39 35 36 33 26 23 27 25 20 15 11 10 8 8 11 10 6 7 7 12 21 19 11 15 20 22 20 13 8 8 10 11 12
53 52 51 49 47 47 47 46 45 42 40 37 33 31 31 38 42 41 39 31 30 31 28 24 23 24 23 19 14 8 7 7 7 9 8 6 6 8 12 19 20 14 15 21 24 21 15 10 9 10 11 11
53 53 52 49 48 47 46 45 45 41 39 37 34 31 33 40 36 30 30 27 27 30 28 27 25 23 21 20 13 6 7 6 7 9 8 7 7 9 13 19 22 17 16 22 25 22 17 13 12 12 12 12
53 54 52 50 49 46 45 45 43 40 40 40 37 33 36 38 26 21 24 23 24 28 31 31 25 20 19 19 12 7 7 5 9 13 9 9 10 12 16 19 22 19 17 20 22 20 16 15 14 15 15 13
51 52 52 51 50 46 44 43 42 40 41 42 39 36 38 32 21 21 23 21 19 20 25 24 20 20 18 13 9 7 6 8 16 17 10 11 13 15 18 21 22 19 17 20 19 16 13 12 13 15 17 15
48 48 49 50 48 46 44 43 41 41 42 43 39 39 36 25 20 23 23 22 17 15 19 16 14 19 17 10 6 7 5 10 21 17 9 12 13 14 19 20 19 18 17 18 17 13 11 9 11 15 16 17
46 44 46 47 46 45 44 42 41 41 43 42 40 40 33 22 22 24 23 21 16 16 19 16 14 16 15 9 5 8 6 8 21 16 8 12 10 10 17 17 19 20 18 18 16 11 9 8 11 15 17 19
44 43 44 45 45 45 44 42 41 42 43 42 41 39 30 22 24 23 22 20 15 18 21 22 21 16 13 7 6 10 6 9 23 16 7 14 12 10 15 16 20 24 22 20 15 10 8 9 13 14 18 21
42 43 44 45 45 45 44 42 42 43 43 42 40 37 29 24 25 24 21 19 16 18 21 26 27 20 12 7 9 11 8 15 24 14 7 16 15 11 15 19 23 24 23 20 13 9 10 12 15 16 19 20
39 41 44 45 46 46 44 42 42 43 42 40 39 35 30 26 26 24 21 20 19 18 20 24 25 19 10 7 10 10 12 19 20 12 7 12 15 13 16 22 26 23 24 21 12 11 14 17 18 18 21 21
39 39 41 43 45 46 45 43 42 41 40 39 37 34 30 28 27 26 23 21 21 20 19 20 20 16 11 10 11 11 17 20 17 14 9 8 12 14 16 23 27 26 26 20 12 14 18 19 19 18 19 19
40 39 40 41 43 45 45 44 42 41 39 39 36 33 31 29 28 26 24 23 23 21 20 20 19 18 14 15 15 16 21 25 24 17 10 10 13 15 19 24 28 28 26 18 12 17 18 16 16 15 16 18
40 41 41 40 41 43 44 44 42 40 39 39 36 33 32 30 30 28 25 25 25 24 24 23 23 22 19 19 19 19 23 28 27 16 11 13 14 17 21 25 27 26 22 16 14 16 13 13 12 13 16 18
41 43 42 40 39 40 41 42 41 40 39 39 36 34 33 31 31 30 27 27 27 27 28 26 26 26 23 22 22 23 24 24 21 15 14 14 15 20 21 20 23 23 20 17 18 17 13 12 11 13 16 19
42 44 44 42 40 38 39 40 39 39 39 39 37 35 34 32 32 32 29 28 29 29 29 28 29 28 26 24 24 27 28 23 20 20 19 17 17 21 19 16 18 21 21 19 19 20 19 18 13 11 12 20
43 44 45 43 41 39 37 38 38 37 39 39 38 37 35 34 33 33 31 30 30 31 30 30 30 30 28 27 27 31 30 26 26 27 25 22 19 19 18 15 16 21 22 18 18 23 26 23 17 16 15 23
43 43 44 44 41 40 38 37 36 35 37 39 39 38 37 36 36 35 34 32 31 31 32 31 31 31 30 29 30 31 31 30 31 31 29 26 22 20 19 14 13 21 21 16 19 28 31 25 21 24 20 20
43 42 44 44 42 41 39 37 34 32 35 38 39 38 38 39 38 37 36 34 32 32 33 32 31 32 32 32 32 31 33 34 34 32 31 30 27 24 21 15 13 18 20 17 19 23 27 30 33 33 25 20
42 42 43 43 43 42 40 38 34 32 33 36 38 38 39 40 40 39 37 36 34 33 34 33 33 33 34 35 34 34 34 32 31 32 32 31 30 27 24 19 16 15 17 20 21 18 17 23 32 36 30 25
42 43 43 43 43 43 42 41 38 34 32 33 36 37 39 40 41 40 38 37 36 34 34 34 33 34 35 36 37 36 35 30 28 31 34 33 33 30 26 23 22 17 15 21 26 25 20 18 23 29 30 29